User: anonymous   Login
Location: Voyageurs National Park
(48.5020°N, 92.9292°W)
Time: 04:44:30
(UTC-05:00)
Language:

Terra - Orbit

View from above orbital plane
View from above orbital plane
View from above satellite
View from above satellite

Ground track
Ground track

The orbit data is extracted from the following two-line orbital elements,

1 25994U 99068A   15116.16635597  .00000462  00000-0  11264-3 0  9996
2 25994 098.2134 191.4412 0001224 094.1193 266.0205 14.57080466816643
Epoch (UTC): 26 April 2015 03:59:33
Eccentricity: 0.0001224
inclination: 98.2134°
perigee height: 702 km
apogee height: 703 km
right ascension of ascending node: 191.4412°
argument of perigee: 94.1193°
revolutions per day: 14.57080466
mean anomaly at epoch: 266.0205°
orbit number at epoch: 81664

The dashed part of the orbit path shows where the satellite is in the earth's shadow,  

DLR